This is the latest recevied weather packets stored in our database for station/object KA1GJU-3. If no packets are shown the sender has not sent any weather packets the latest 1 day(s).
| Time | Temp. | Humidity | Pressure | Rain* | Wind** | Luminosity | Snow |
|---|---|---|---|---|---|---|---|
| 1778041456 | 17.22° C | 100% | 0 hPa | 0 mm | 2.24 m/s, 234° | - | - |
| 1778040856 | 17.78° C | 100% | 0 hPa | 0 mm | 2.68 m/s, 246° | - | - |
| 1778040256 | 17.22° C | 100% | 0 hPa | 0 mm | 1.79 m/s, 232° | - | - |
| 1778039656 | 17.78° C | 100% | 0 hPa | 0 mm | 2.68 m/s, 250° | - | - |
| 1778039056 | 17.78° C | 100% | 0 hPa | 0 mm | 2.68 m/s, 232° | - | - |
| 1778038456 | 17.78° C | 100% | 0 hPa | 0 mm | 1.34 m/s, 274° | - | - |
| 1778037856 | 18.33° C | 100% | 0 hPa | 0 mm | 4.47 m/s, 255° | - | - |
| 1778037256 | 18.33° C | 100% | 0 hPa | 0 mm | 3.58 m/s, 248° | - | - |
| 1778036656 | 18.33° C | 100% | 0 hPa | 0 mm | 2.68 m/s, 234° | - | - |
| 1778036056 | 18.33° C | 100% | 0 hPa | 0 mm | 3.58 m/s, 210° | - | - |
| 1778035456 | 18.89° C | 100% | 0 hPa | 0 mm | 2.68 m/s, 239° | - | - |
| 1778034856 | 19.44° C | 100% | 0 hPa | 0 mm | 2.68 m/s, 237° | - | - |
| 1778034256 | 19.44° C | 100% | 0 hPa | 0 mm | 2.24 m/s, 147° | - | - |
| 1778033656 | 19.44° C | 100% | 0 hPa | 0 mm | 3.13 m/s, 223° | - | - |
| 1778033056 | 19.44° C | 100% | 0 hPa | 0 mm | 2.24 m/s, 262° | - | - |
| 1778032456 | 19.44° C | 100% | 0 hPa | 0 mm | 2.68 m/s, 248° | - | - |
| 1778031856 | 19.44° C | 100% | 0 hPa | 0 mm | 1.34 m/s, 255° | - | - |
| 1778031256 | 20° C | 100% | 0 hPa | 0 mm | 2.24 m/s, 251° | - | - |
| 1778030656 | 18.89° C | 100% | 0 hPa | 0 mm | 1.34 m/s, 236° | - | - |
| 1778030056 | 19.44° C | 100% | 0 hPa | 0 mm | 1.34 m/s, 278° | - | - |
| 1778029456 | 20° C | 100% | 0 hPa | 0 mm | 1.34 m/s, 227° | - | - |
| 1778028856 | 20° C | 100% | 0 hPa | 0 mm | 2.24 m/s, 222° | - | - |
| 1778028256 | 20° C | 100% | 0 hPa | 0 mm | 2.68 m/s, 213° | - | - |
| 1778027656 | 20° C | 100% | 0 hPa | 0 mm | 1.79 m/s, 232° | - | - |
| 1778027056 | 20.56° C | 100% | 0 hPa | 0 mm | 3.58 m/s, 240° | - | - |
* Rain latest hour (hover to see other rain measurements)
** Current wind speed in m/s (hover to see current wind gust speed)